Location: Unspecified
(0.0000°N, 0.0000°E)
Time: 17:00:40
(UTC+00:00)

A-11 Canister half - All Passes

Search period start: 14 December 2017 00:00
Search period end: 24 December 2017 00:00
Orbit: 1528 x 1681 km, 47.3° (Epoch: 13 December)

Date Brightness Start Highest point End Pass type
(mag) Time Alt. Az. Time Alt. Az. Time Alt. Az.
14 Dec - 06:35:39 10° SSW 06:44:03 34° SE 06:52:37 10° ENE daylight
14 Dec - 08:39:34 10° SW 08:48:56 53° NW 08:58:35 10° NNE daylight
14 Dec - 17:26:45 10° NNE 17:30:50 13° NE 17:34:52 10° ENE daylight
14 Dec - 19:26:37 10° NNW 19:36:24 73° NE 19:45:51 10° SE visible
14 Dec - 21:34:15 10° W 21:41:19 23° SW 21:48:19 10° S visible
15 Dec - 06:14:15 10° S 06:22:26 31° SE 06:30:46 10° ENE daylight
15 Dec - 08:17:54 10° SW 08:27:19 56° NW 08:37:03 10° NNE daylight
15 Dec - 17:05:55 10° NNE 17:09:09 12° NE 17:12:20 10° ENE daylight
15 Dec - 19:05:03 10° NNW 19:14:48 68° NE 19:24:14 10° SE visible
15 Dec - 21:12:17 10° W 21:19:42 25° SW 21:27:01 10° S visible
16 Dec - 05:52:54 10° S 06:00:49 29° SE 06:08:53 10° ENE daylight
16 Dec - 07:56:15 10° SW 08:05:43 60° NW 08:15:31 10° NNE daylight
16 Dec - 16:45:28 10° NNE 16:47:27 11° NE 16:49:25 10° NE daylight
16 Dec - 18:43:29 10° NNW 18:53:12 64° NE 19:02:36 10° SE visible
16 Dec - 20:50:22 10° WNW 20:58:06 27° SW 21:05:41 10° S visible
17 Dec - 05:31:32 10° S 05:39:12 27° SE 05:46:58 10° ENE visible
17 Dec - 07:34:36 10° SW 07:44:07 65° NW 07:53:57 10° NNE daylight
17 Dec - 09:47:22 10° WNW 09:49:53 11° NW 09:52:24 10° NNW daylight
17 Dec - 18:21:55 10° NNW 18:31:36 59° NE 18:40:58 10° SE visible
17 Dec - 20:28:28 10° WNW 20:36:29 29° SW 20:44:20 10° S visible
18 Dec - 05:10:13 10° S 05:17:35 25° SE 05:25:03 10° E visible
18 Dec - 07:12:58 10° SW 07:22:31 69° NW 07:32:23 10° NNE daylight
18 Dec - 09:24:37 10° WNW 09:28:11 12° NW 09:31:45 10° NNW daylight
18 Dec - 18:00:23 10° NNW 18:10:00 56° NE 18:19:18 10° SE daylight
18 Dec - 20:06:36 10° WNW 20:14:52 31° SW 20:22:58 10° S visible
19 Dec - 04:48:55 10° S 04:55:57 23° SE 05:03:05 10° E visible
19 Dec - 06:51:20 10° SW 07:00:55 74° NW 07:10:48 10° NNE daylight
19 Dec - 09:02:10 10° WNW 09:06:29 13° NW 09:10:51 10° NNW daylight
19 Dec - 17:38:50 10° NNW 17:48:24 52° NE 17:57:38 10° ESE daylight
19 Dec - 19:44:45 10° WNW 19:53:15 34° SW 20:01:35 10° SSE visible
20 Dec - 04:27:39 10° S 04:34:20 21° SE 04:41:04 10° E visible
20 Dec - 06:29:45 10° SW 06:39:19 79° NW 06:49:12 10° NE daylight
20 Dec - 08:39:52 10° WNW 08:44:48 15° NW 08:49:48 10° NNW daylight
20 Dec - 17:17:19 10° NNW 17:26:47 48° NE 17:35:57 10° ESE daylight
20 Dec - 19:22:55 10° WNW 19:31:39 37° SW 19:40:11 10° SSE visible
21 Dec - 04:06:25 10° S 04:12:41 19° SE 04:19:02 10° E visible
21 Dec - 06:08:09 10° SW 06:17:43 84° NW 06:27:36 10° NE daylight
21 Dec - 08:17:40 10° W 08:23:07 16° NW 08:28:40 10° N daylight
21 Dec - 16:55:49 10° NNW 17:05:10 45° NE 17:14:14 10° ESE daylight
21 Dec - 19:01:07 10° WNW 19:10:03 39° SW 19:18:46 10° SSE visible
22 Dec - 03:45:13 10° S 03:51:03 18° SE 03:56:56 10° E visible
22 Dec - 05:46:34 10° SW 05:56:07 89° NW 06:06:00 10° NE daylight
22 Dec - 07:55:33 10° W 08:01:26 18° NW 08:07:27 10° N daylight
22 Dec - 16:34:18 10° NNW 16:43:33 42° NE 16:52:31 10° ESE daylight
22 Dec - 18:39:20 10° WNW 18:48:26 42° SW 18:57:20 10° SSE visible
23 Dec - 03:24:05 10° SSE 03:29:25 16° SE 03:34:47 10° E visible
23 Dec - 05:25:01 10° SW 05:34:32 86° SE 05:44:22 10° NE visible
23 Dec - 07:33:30 10° W 07:39:47 19° NW 07:46:13 10° N daylight
23 Dec - 16:12:49 10° NNW 16:21:56 39° NE 16:30:46 10° ESE daylight
23 Dec - 18:17:33 10° WNW 18:26:50 46° SW 18:35:53 10° SSE visible
